GW5618 Weather Reports


time (UTC)temp
F
wind
direction
speed
knots
gust
knots
rain 1hr
in
rain 24hr
in
rain mn
in
humidity
%
barometer
mb
20260507191738 66 239 6.1 6.1 0.00 0.26 0.26 38 1004.6
20260507191235 65 306 3.5 12.2 0.00 0.26 0.26 38 1004.6
20260507190732 65 312 9.6 11.3 0.00 0.26 0.26 39 1004.6
20260507190230 64 308 3.5 10.4 0.00 0.26 0.26 38 1004.6
20260507185729 66 250 7.0 11.3 0.00 0.26 0.26 38 1005.0
20260507185225 66 341 3.5 10.4 0.00 0.26 0.26 39 1004.8
20260507184723 65 285 0.0 6.1 0.00 0.26 0.26 43 1005.0
20260507184221 65 318 7.0 9.6 0.00 0.26 0.26 41 1005.1
20260507183717 65 313 4.3 11.3 0.00 0.26 0.26 40 1004.9
20260507183214 65 205 6.1 9.6 0.00 0.26 0.26 45 1005.2
20260507182711 65 288 4.3 9.6 0.00 0.26 0.26 40 1005.0
20260507182206 64 318 7.0 7.0 0.00 0.26 0.26 39 1005.2
20260507181703 64 275 5.2 12.2 0.00 0.26 0.26 40 1005.5
20260507181200 64 303 6.1 7.8 0.00 0.26 0.26 41 1005.2
20260507180656 64 246 7.0 12.2 0.00 0.26 0.26 41 1005.4
20260507180153 64 297 7.8 9.6 0.00 0.26 0.26 44 1005.4
20260507175649 63 287 5.2 7.0 0.00 0.26 0.26 47 1005.2
20260507175146 64 281 4.3 10.4 0.00 0.26 0.26 48 1005.4
20260507174643 65 176 3.5 6.1 0.00 0.26 0.26 51 1005.3
20260507174142 63 331 2.6 7.0 0.00 0.26 0.26 51 1005.4
20260507173638 64 232 3.5 7.0 0.00 0.26 0.26 48 1005.2
20260507173135 64 238 0.0 9.6 0.00 0.26 0.26 50 1005.4
20260507172631 63 127 3.5 7.8 0.00 0.26 0.26 52 1005.5
20260507172129 62 234 2.6 8.7 0.00 0.26 0.26 49 1005.6
20260507171624 64 326 2.6 14.8 0.00 0.26 0.26 51 1005.7
20260507171121 63 53 1.7 9.6 0.00 0.26 0.26 54 1005.5
20260507170618 63 38 1.7 11.3 0.00 0.26 0.26 54 1005.7
20260507170115 62 6 1.7 4.3 0.00 0.26 0.26 54 1005.7
20260507165611 61 297 1.7 10.4 0.00 0.26 0.26 54 1005.7
20260507165107 62 303 5.2 9.6 0.00 0.26 0.26 55 1005.7
20260507164603 63 268 4.3 10.4 0.00 0.26 0.26 55 1005.7
20260507164100 62 160 3.5 12.2 0.00 0.26 0.26 58 1005.8
20260507163558 62 230 6.1 11.3 0.00 0.26 0.26 60 1006.0
20260507163056 62 358 5.2 13.0 0.00 0.26 0.26 57 1006.0
20260507162555 60 152 5.2 6.1 0.00 0.26 0.26 62 1006.0
20260507162053 60 292 1.7 7.8 0.00 0.00 0.00 58 1006.2
20260507161549 60 224 2.6 7.0 0.00 0.00 0.00 59 1006.1
20260507161046 61 344 5.2 6.1 0.00 0.00 0.00 55 1006.2
20260507160542 61 278 5.2 6.1 0.00 0.00 0.00 56 1006.3
20260507160038 60 151 2.6 7.8 0.00 0.00 0.00 58 1006.4
20260507155534 59 288 4.3 9.6 0.00 0.26 0.26 59 1006.5
20260507155031 59 327 4.3 7.0 0.00 0.26 0.26 58 1006.6
20260507154528 59 260 4.3 5.2 0.00 0.26 0.26 57 1006.6
20260507154025 60 305 2.6 6.1 0.00 0.26 0.26 57 1006.6
20260507153521 60 323 0.0 5.2 0.00 0.26 0.26 63 1006.5
20260507153018 61 71 1.7 3.5 0.00 0.26 0.26 61 1006.7
20260507152513 60 303 2.6 6.1 0.00 0.26 0.26 60 1006.7
20260507152010 60 176 2.6 9.6 0.00 0.26 0.26 60 1006.6
20260507151507 60 20 4.3 7.0 0.00 0.26 0.26 62 1006.7
20260507151004 59 181 3.5 4.3 0.00 0.26 0.26 68 1006.9
20260507150500 59 357 2.6 7.0 0.00 0.26 0.26 62 1007.1
20260507145956 58 27 3.5 4.3 0.00 0.26 0.26 63 1007.0
20260507145452 58 47 3.5 7.8 0.00 0.26 0.26 62 1007.0
20260507144950 58 32 3.5 11.3 0.00 0.26 0.26 64 1007.0
20260507144446 58 313 4.3 4.3 0.00 0.26 0.26 66 1006.9
20260507143943 57 355 4.3 5.2 0.00 0.26 0.26 68 1007.1
20260507143441 57 311 1.7 7.8 0.00 0.26 0.26 65 1007.2
20260507142937 57 27 7.0 9.6 0.00 0.26 0.26 66 1007.0
20260507142433 57 24 1.7 7.0 0.00 0.26 0.26 69 1007.2
20260507141931 57 7 1.7 7.8 0.00 0.26 0.26 71 1007.1
20260507141426 56 280 1.7 5.2 0.00 0.26 0.26 70 1007.4
20260507140923 56 6 1.7 5.2 0.00 0.26 0.26 73 1007.4
20260507140420 56 300 6.1 8.7 0.00 0.26 0.26 72 1007.2
20260507135918 56 338 1.7 7.8 0.00 0.26 0.26 74 1007.3
20260507135414 56 336 4.3 9.6 0.00 0.26 0.26 74 1007.1
20260507134912 55 301 5.2 7.0 0.00 0.26 0.26 80 1007.3
20260507134408 55 292 4.3 6.1 0.00 0.26 0.26 81 1007.4
20260507133904 54 327 1.7 7.8 0.00 0.26 0.26 84 1007.2
20260507133400 54 20 4.3 5.2 0.00 0.26 0.26 86 1007.2
20260507132859 54 29 1.7 7.8 0.00 0.26 0.26 89 1007.2
20260507132355 53 215 2.6 9.6 0.00 0.26 0.26 91 1007.3
20260507131852 53 44 2.6 6.1 0.00 0.26 0.26 95 1007.3
20260507131349 52 310 5.2 5.2 0.00 0.26 0.26 97 1007.3
20260507130846 52 299 1.7 4.3 0.00 0.26 0.26 98 1007.3
20260507130342 51 63 3.5 5.2 0.00 0.26 0.26 99 1007.3
20260507125842 51 221 0.0 7.8 0.00 0.26 0.26 99 1007.2
20260507125338 50 31 3.5 4.3 0.00 0.26 0.26 99 1007.1
20260507124836 50 270 1.7 7.8 0.00 0.26 0.26 99 1007.3
20260507124332 50 284 2.6 5.2 0.00 0.26 0.26 99 1007.4
20260507123831 50 311 0.0 7.0 0.28 0.26 0.26 99 1007.7
20260507123327 50 305 0.0 4.3 0.28 0.26 0.26 99 1007.6
20260507122823 50 199 1.7 4.3 0.00 0.00 0.00 99 1007.8
20260507122319 50 327 0.0 1.7 0.00 0.00 0.00 99 1007.6
20260507121815 50 316 2.6 3.5 0.00 0.00 0.00 99 1007.4
20260507121311 49 30 0.0 2.6 0.00 0.00 0.00 99 1007.2
20260507120808 49 210 0.0 1.7 0.00 0.00 0.00 99 1007.1
20260507120304 49 98 0.0 1.7 0.00 0.00 0.00 99 1007.3
20260507115801 48 193 1.7 2.6 0.00 0.00 0.00 99 1007.4
20260507115256 48 195 0.0 1.7 0.00 0.00 0.00 99 1007.4
20260507114752 48 56 0.0 1.7 0.00 0.00 0.00 99 1007.4
20260507114250 48 158 1.7 3.5 0.00 0.22 0.22 99 1007.6
20260507113747 48 179 0.0 3.5 0.00 0.22 0.22 99 1007.2
20260507113243 48 357 0.0 2.6 0.00 0.22 0.22 99 1006.8
20260507112742 48 6 1.7 1.7 0.00 0.22 0.22 99 1006.9
20260507112238 48 185 0.0 1.7 0.00 0.22 0.22 99 1007.4
20260507111736 48 140 0.0 1.7 0.00 0.22 0.22 99 1007.4
20260507111232 48 142 0.0 2.6 0.00 0.22 0.22 99 1007.3
20260507110728 48 3 2.6 2.6 0.00 0.22 0.22 99 1007.1
20260507110225 48 24 0.0 7.0 0.00 0.22 0.22 99 1006.9
20260507105722 48 301 0.0 4.3 0.00 0.22 0.22 99 1006.9
20260507105218 49 56 3.5 3.5 0.00 0.22 0.22 99 1006.6
20260507104716 49 338 1.7 3.5 0.00 0.22 0.22 99 1006.9
20260507104212 49 316 1.7 4.3 0.00 0.22 0.22 99 1007.1
20260507103708 49 342 1.7 4.3 0.00 0.22 0.22 99 1007.2
20260507103204 49 349 0.0 3.5 0.00 0.22 0.22 99 1007.0
20260507102701 49 350 1.7 5.2 0.00 0.22 0.22 99 1007.2
20260507102158 49 345 0.0 3.5 0.05 0.22 0.22 99 1007.5
20260507101653 49 258 1.7 3.5 0.05 0.21 0.21 99 1007.0
20260507101149 49 11 0.0 1.7 0.07 0.21 0.21 99 1007.0
20260507100647 50 323 3.5 4.3 0.07 0.20 0.20 99 1006.8
20260507100145 50 17 1.7 1.7 0.02 0.20 0.20 99 1006.8
20260507095643 50 109 0.0 1.7 0.00 0.19 0.19 99 1007.1
20260507095139 50 318 0.0 1.7 0.02 0.19 0.19 99 1006.5
20260507094635 50 334 1.7 4.3 0.00 0.19 0.19 99 1006.5
20260507094132 50 315 3.5 7.0 0.02 0.19 0.19 99 1006.8
20260507093629 50 322 0.0 7.0 0.02 0.19 0.19 99 1006.8
20260507093128 50 47 1.7 4.3 0.00 0.18 0.18 99 1006.6
20260507092624 50 276 1.7 2.6 0.00 0.18 0.18 99 1006.7
20260507092121 51 325 4.3 4.3 0.00 0.18 0.18 99 1006.8
20260507091618 51 52 1.7 4.3 0.02 0.18 0.18 99 1006.4
20260507091114 51 45 3.5 6.1 0.02 0.18 0.18 99 1006.3
20260507090610 52 330 4.3 6.1 0.02 0.18 0.18 99 1006.2
20260507090107 52 339 3.5 6.1 0.05 0.18 0.18 99 1006.2
20260507085604 52 327 2.6 7.0 0.05 0.18 0.18 99 1006.2
20260507085100 52 341 1.7 3.5 0.07 0.17 0.17 99 1006.2
20260507084557 53 354 3.5 5.2 0.05 0.17 0.17 99 1006.1
20260507084054 53 284 4.3 6.1 0.02 0.16 0.16 99 1006.2
20260507083550 53 21 0.0 2.6 0.12 0.16 0.16 99 1005.6
20260507083048 53 97 0.0 5.2 0.26 0.16 0.16 99 1006.0
20260507082544 53 25 1.7 5.2 0.31 0.14 0.14 99 1006.1
20260507082041 54 44 0.0 1.7 0.21 0.11 0.11 99 1006.2
20260507081536 54 6 4.3 4.3 0.09 0.08 0.08 99 1006.0
20260507081034 54 359 1.7 3.5 0.12 0.07 0.07 99 1006.2
20260507080529 55 270 1.7 4.3 0.12 0.06 0.06 99 1006.2
20260507080026 55 12 0.0 5.2 0.12 0.06 0.06 98 1005.8
20260507075521 55 41 2.6 6.1 0.21 0.04 0.04 97 1006.0
20260507075018 56 254 4.3 4.3 0.19 0.03 0.03 97 1006.1
20260507074514 56 346 1.7 6.1 0.02 0.00 0.00 97 1005.7
20260507074013 56 297 5.2 5.2 0.00 0.00 0.00 97 1005.4
20260507073509 56 273 2.6 4.3 0.00 0.00 0.00 98 1005.1
20260507073006 56 29 1.7 1.7 0.00 0.00 0.00 98 1005.2
20260507072503 56 22 1.7 1.7 0.00 0.00 0.00 99 1005.2
20260507072000 56 20 1.7 3.5 0.00 0.00 0.00 99 1005.0
20260507071457 56 10 1.7 3.5 0.00 0.00 0.00 99 1005.0
20260507070954 56 317 1.7 5.2 0.00 0.00 0.00 99 1005.4
20260507070451 56 286 3.5 5.2 0.00 0.00 0.00 99 1005.3
20260507065948 57 202 0.0 2.6 0.00 0.00 0.00 99 1005.2
20260507065444 57 74 0.0 1.7 0.00 0.00 0.00 99 1005.0
20260507064942 57 181 0.0 1.7 0.00 0.00 0.00 99 1005.1
20260507064440 57 352 3.5 3.5 0.00 0.00 0.00 99 1005.0
20260507063937 57 40 1.7 4.3 0.00 0.00 0.00 99 1005.1
20260507063434 57 262 1.7 1.7 0.00 0.00 0.00 99 1005.3
20260507062931 57 174 1.7 1.7 0.00 0.00 0.00 99 1005.2
20260507062429 57 91 0.0 1.7 0.00 0.00 0.00 99 1005.2
20260507061925 57 49 1.7 2.6 0.00 0.00 0.00 99 1005.3
20260507061424 57 257 0.0 3.5 0.00 0.00 0.00 99 1005.4
20260507060922 57 4 1.7 1.7 0.00 0.00 0.00 99 1005.4
20260507060418 57 194 2.6 4.3 0.00 0.00 0.00 99 1005.5
20260507055915 57 228 4.3 4.3 0.00 0.00 0.00 99 1005.8
20260507055410 57 187 1.7 4.3 0.00 0.00 0.00 99 1005.4
20260507054907 57 103 1.7 5.2 0.00 0.00 0.00 99 1005.3
20260507054403 57 289 0.0 4.3 0.00 0.00 0.00 99 1005.5
20260507053901 57 62 1.7 3.5 0.00 0.00 0.00 99 1005.9
20260507053358 57 176 2.6 3.5 0.00 0.00 0.00 99 1005.7
20260507052857 57 191 0.0 2.6 0.00 0.00 0.00 99 1005.6
20260507052354 57 102 0.0 2.6 0.00 0.00 0.00 99 1005.6
20260507051851 57 155 1.7 4.3 0.00 0.00 0.00 99 1005.5
20260507051349 57 77 0.0 4.3 0.00 0.00 0.00 99 1005.6
20260507050845 57 162 1.7 3.5 0.00 0.00 0.00 99 1005.6
20260507050342 57 314 1.7 5.2 0.00 0.00 0.00 99 1005.8
20260507045838 57 197 0.0 3.5 0.00 0.00 0.00 99 1005.9
20260507045335 57 232 0.0 3.5 0.00 0.00 0.00 99 1006.0
20260507044832 57 152 2.6 7.0 0.00 0.00 0.00 99 1005.9
20260507044329 57 238 1.7 5.2 0.00 0.00 0.00 99 1005.8
20260507043825 57 107 2.6 5.2 0.00 0.00 0.00 99 1005.7
20260507043321 57 6 0.0 7.0 0.00 0.00 0.00 99 1005.7
20260507042818 57 213 1.7 7.0 0.00 0.00 0.00 99 1005.7
20260507042314 57 197 0.0 5.2 0.00 0.00 0.00 99 1005.8
20260507041811 57 254 3.5 4.3 0.00 0.00 0.00 99 1005.9
20260507041307 57 162 1.7 6.1 0.00 0.00 0.00 99 1005.8
20260507040805 56 217 1.7 5.2 0.00 0.00 0.00 99 1005.9
20260507040300 56 170 3.5 7.8 0.00 0.00 0.00 99 1006.1
20260507035756 56 277 0.0 4.3 0.00 0.07 0.07 99 1006.0
20260507035252 56 123 0.0 6.1 0.00 0.07 0.07 99 1006.0
20260507034750 56 106 4.3 6.1 0.00 0.07 0.07 99 1006.2
20260507034246 56 273 4.3 9.6 0.00 0.07 0.07 99 1006.4
20260507033745 56 177 3.5 7.0 0.00 0.07 0.07 99 1006.2
20260507033242 56 245 6.1 7.0 0.00 0.07 0.07 99 1006.0
20260507032739 56 223 5.2 7.8 0.00 0.07 0.07 99 1006.0
20260507032235 56 239 6.1 7.0 0.00 0.07 0.07 99 1006.0
20260507031732 56 171 5.2 7.8 0.00 0.07 0.07 99 1005.9
20260507031229 56 200 5.2 19.1 0.00 0.07 0.07 99 1005.7
20260507030725 56 273 3.5 7.8 0.00 0.07 0.07 99 1005.7
20260507030223 56 321 1.7 12.2 0.00 0.07 0.07 99 1005.7
20260507025720 56 183 3.5 7.8 0.00 0.07 0.07 99 1005.7
20260507025217 56 214 3.5 5.2 0.00 0.07 0.07 99 1005.5
20260507024715 56 128 1.7 7.0 0.00 0.07 0.07 99 1005.5
20260507024212 56 286 1.7 6.1 0.00 0.07 0.07 99 1005.5
20260507023707 56 185 3.5 10.4 0.00 0.07 0.07 99 1005.6
20260507023205 56 125 6.1 12.2 0.00 0.07 0.07 99 1005.6
20260507022702 56 218 7.0 7.0 0.00 0.07 0.07 99 1005.6
20260507022157 56 191 8.7 11.3 0.00 0.07 0.07 99 1005.5
20260507021654 56 47 0.0 9.6 0.00 0.07 0.07 99 1005.4
20260507021149 56 234 4.3 10.4 0.00 0.07 0.07 99 1005.8
20260507020648 56 222 6.1 6.1 0.00 0.07 0.07 99 1005.9
20260507020144 56 134 1.7 7.8 0.00 0.07 0.07 99 1005.9
20260507015642 56 127 3.5 7.0 0.00 0.07 0.07 99 1006.1
20260507015139 56 196 2.6 6.1 0.00 0.07 0.07 99 1006.1
20260507014636 56 138 7.8 13.9 0.00 0.07 0.07 99 1006.1
20260507014132 56 153 4.3 13.0 0.00 0.07 0.07 99 1006.2
20260507013629 56 121 4.3 13.0 0.00 0.07 0.07 99 1006.2
20260507013126 56 168 5.2 11.3 0.00 0.07 0.07 99 1006.1
20260507012623 56 280 0.0 11.3 0.00 0.07 0.07 99 1006.2
20260507012118 56 147 5.2 13.0 0.00 0.07 0.07 99 1006.2
20260507011617 56 164 4.3 10.4 0.00 0.07 0.07 99 1006.3
20260507011113 56 125 3.5 13.0 0.00 0.07 0.07 99 1006.3
20260507010608 56 275 3.5 10.4 0.00 0.07 0.07 99 1006.3
20260507010104 56 168 1.7 9.6 0.00 0.07 0.07 99 1006.2
20260507005601 57 230 7.0 7.8 0.00 0.07 0.07 99 1006.4
20260507005057 57 114 10.4 13.0 0.00 0.07 0.07 99 1006.4
20260507004554 57 154 6.1 8.7 0.00 0.07 0.07 99 1006.2
20260507004052 57 124 6.1 7.8 0.00 0.07 0.07 99 1006.4
20260507003548 57 106 7.8 8.7 0.00 0.07 0.07 99 1006.4
20260507003043 57 151 6.1 6.1 0.00 0.07 0.07 99 1006.3
20260507002540 57 141 4.3 7.0 0.02 0.07 0.07 99 1006.4
20260507002036 57 199 12.2 12.2 0.05 0.07 0.07 99 1006.2
20260507001532 57 249 4.3 9.6 0.05 0.06 0.06 99 1006.2
20260507001030 57 157 5.2 9.6 0.07 0.06 0.06 99 1006.3
20260507000526 57 211 6.1 7.8 0.05 0.06 0.06 99 1006.1
20260507000022 57 231 7.8 13.0 0.00 0.05 0.05 99 1006.3
20260506235519 57 229 3.5 17.4 0.00 0.05 0.05 99 1006.2
20260506235015 57 202 7.0 7.8 0.00 0.05 0.05 99 1006.1
20260506234513 57 121 5.2 7.8 0.00 0.05 0.05 99 1006.3
20260506234010 57 135 3.5 7.0 0.00 0.05 0.05 99 1006.2
20260506233506 57 150 10.4 16.5 0.00 0.05 0.05 99 1006.3
20260506233003 57 128 6.1 7.8 0.00 0.05 0.05 99 1006.3
20260506232459 57 165 5.2 13.9 0.02 0.05 0.05 99 1006.4
20260506231955 57 81 7.8 15.6 0.02 0.05 0.05 99 1006.3
20260506231452 57 163 7.8 16.5 0.00 0.05 0.05 99 1006.4
20260506230950 57 140 3.5 10.4 0.00 0.05 0.05 99 1006.4
20260506230446 57 139 4.3 13.0 0.00 0.05 0.05 99 1006.3
20260506225942 57 197 1.7 4.3 0.02 0.05 0.05 99 1006.3
20260506225440 57 233 3.5 9.6 0.02 0.05 0.05 99 1006.3
20260506224937 57 114 3.5 12.2 0.02 0.04 0.04 99 1006.4
20260506224434 57 233 4.3 7.8 0.05 0.04 0.04 99 1006.2
20260506223930 57 94 7.0 9.6 0.05 0.04 0.04 99 1006.5
20260506223426 58 146 7.0 12.2 0.02 0.03 0.03 98 1006.9
20260506222923 58 177 1.7 10.4 0.02 0.03 0.03 98 1006.5
20260506222420 58 184 13.0 14.8 0.05 0.03 0.03 97 1006.8
20260506221917 58 213 8.7 13.0 0.02 0.02 0.02 97 1006.6
20260506221414 58 111 5.2 7.8 0.00 0.02 0.02 96 1006.8
20260506220912 59 164 7.8 15.6 0.00 0.02 0.02 96 1006.8
20260506220407 59 132 3.5 13.0 0.00 0.02 0.02 95 1006.8
20260506215904 59 171 13.0 14.8 0.00 0.02 0.02 96 1006.7
20260506215400 59 137 7.0 17.4 0.00 0.02 0.02 96 1007.0
20260506214856 59 171 3.5 13.0 0.00 0.02 0.02 96 1006.9
20260506214352 59 257 6.1 13.9 0.00 0.02 0.02 95 1006.7
20260506213851 59 202 12.2 14.8 0.00 0.02 0.02 95 1006.8
20260506213348 59 127 9.6 18.2 0.00 0.02 0.02 94 1007.1
20260506212845 60 161 5.2 14.8 0.00 0.02 0.02 94 1006.9
20260506212340 60 146 9.6 13.9 0.00 0.02 0.02 93 1006.8
20260506211836 60 176 6.1 13.9 0.00 0.02 0.02 93 1007.1
20260506211332 60 150 4.3 13.0 0.00 0.02 0.02 93 1007.1
20260506210829 60 150 6.1 13.0 0.00 0.02 0.02 93 1006.9
20260506210326 60 160 9.6 15.6 0.00 0.02 0.02 93 1007.0
20260506205823 60 168 2.6 13.0 0.00 0.02 0.02 94 1007.2
20260506205319 60 155 3.5 12.2 0.00 0.02 0.02 93 1007.3
20260506204816 59 281 4.3 10.4 0.00 0.02 0.02 93 1007.1
20260506204314 59 195 4.3 16.5 0.00 0.02 0.02 94 1007.2
20260506203811 59 190 7.8 14.8 0.00 0.02 0.02 95 1007.1
20260506203309 59 147 6.1 7.8 0.02 0.02 0.02 95 1007.4
20260506202805 59 211 5.2 20.9 0.00 0.02 0.02 95 1007.1
20260506202305 59 164 5.2 9.6 0.02 0.02 0.02 94 1007.3
20260506201758 60 128 6.1 13.0 0.02 0.02 0.02 94 1007.4
20260506201255 60 181 2.6 10.4 0.02 0.01 0.01 92 1007.2
20260506200753 60 145 7.8 13.0 0.05 0.01 0.01 91 1007.4
20260506200249 60 164 5.2 12.2 0.05 0.01 0.01 90 1007.5
20260506195745 61 194 5.2 22.6 0.02 0.00 0.00 88 1007.6
20260506195242 61 210 3.5 17.4 0.00 0.00 0.00 86 1007.7
20260506194739 62 125 13.9 19.1 0.00 0.00 0.00 85 1007.7
20260506194235 62 108 6.1 16.5 0.00 0.00 0.00 84 1007.7
20260506193734 63 198 7.8 23.5 0.00 0.00 0.00 81 1007.6
20260506193230 63 150 5.2 7.8 0.00 0.00 0.00 81 1007.6
20260506192726 63 147 7.0 18.2 0.00 0.00 0.00 80 1007.6
20260506192223 63 132 7.8 15.6 0.00 0.00 0.00 80 1007.7